Temperature
27 26 26 26 28 30 30 31 32 31 31 31 30 30 29 28 26 25 24 23 21 21 21 20 20 19 19 19 19 19 19 19 18 18 18 18 18 18 18 18 18 18 18 18 18 18 18 18 18
27 26 27 28 29 29 30 31 31 31 31 31 30 29 28 27 26 24 23 22 21 20 20 20 20 19 19 19 19 19 19 19 18 18 18 18 18 18 18 18 18 18 18 18 18 18 18 18 18
27 27 29 30 30 30 30 32 31 32 31 31 30 29 28 27 25 24 23 22 21 20 20 20 20 20 19 19 19 19 19 18 18 18 18 18 18 18 18 18 18 18 18 18 18 18 18 18 18
27 30 30 31 31 32 32 32 32 32 32 31 30 28 27 26 25 24 23 22 21 20 20 20 20 20 19 19 19 19 18 18 18 18 18 18 18 18 18 18 18 18 18 18 18 18 18 18 18
29 31 31 31 32 33 33 33 33 32 32 30 29 28 26 25 25 24 24 23 21 20 20 21 20 20 19 19 19 19 18 18 18 18 18 18 18 18 18 18 18 18 18 18 18 18 18 18 18
31 32 31 31 32 33 34 33 33 32 32 31 29 27 26 25 24 24 24 23 22 20 20 21 20 20 19 19 19 19 18 18 18 18 18 18 18 18 18 18 18 18 18 18 18 18 18 18 18
31 31 32 32 32 32 33 33 33 32 32 31 30 28 26 25 24 24 24 23 22 21 21 21 20 20 19 19 19 19 19 18 18 18 18 18 18 18 18 18 18 18 18 18 18 18 18 18 18
32 32 32 33 33 33 34 33 33 32 32 31 30 28 26 25 24 24 24 23 22 21 20 20 20 20 19 19 19 19 19 19 18 18 18 18 18 18 18 18 18 18 18 18 18 18 18 18 18
33 32 32 33 33 33 34 34 33 32 31 31 30 29 26 25 25 24 24 23 22 21 21 20 19 19 19 19 19 19 19 19 18 18 18 18 18 18 17 18 18 18 18 18 18 18 18 18 18
34 32 32 34 35 35 34 34 33 32 31 30 28 27 26 25 25 24 24 23 22 21 21 20 20 19 19 18 19 19 18 18 18 18 18 18 17 17 17 18 18 18 18 18 18 18 18 18 18
34 33 34 35 35 34 34 34 33 32 30 29 28 27 25 25 25 24 24 23 22 22 21 21 20 20 19 19 19 18 18 18 18 18 18 18 18 18 18 18 18 18 18 17 18 18 17 17 18
34 35 35 35 35 34 34 34 34 33 32 30 29 27 26 25 25 25 24 23 22 22 21 21 20 20 20 19 19 19 18 19 18 18 18 18 18 18 18 18 18 18 17 17 18 17 17 17 18
35 35 35 35 35 34 34 34 33 33 32 31 29 27 26 26 25 25 24 23 22 22 21 21 20 20 20 19 19 19 19 19 19 18 18 18 18 18 18 18 18 18 18 18 18 17 17 17 17
35 35 35 35 34 34 34 34 33 33 32 31 29 28 27 26 25 25 24 23 22 22 21 21 20 20 20 20 19 19 19 19 19 19 18 18 18 18 18 18 18 18 18 18 18 18 17 17 17
34 34 35 35 35 34 33 32 33 33 32 31 30 29 28 27 26 25 24 23 22 22 21 20 20 20 20 19 19 19 19 19 19 18 18 18 18 18 18 18 18 18 18 18 17 17 17 18 18
34 34 33 35 35 35 33 31 33 33 32 31 30 29 28 27 26 25 24 23 22 21 21 20 20 20 20 19 19 19 19 19 19 18 18 18 18 18 18 18 18 18 18 18 18 18 18 18 18
34 33 33 34 35 35 34 32 33 33 32 32 31 29 28 27 26 25 23 22 22 21 21 20 20 20 20 20 19 19 19 19 19 18 18 18 18 18 18 18 18 18 18 18 18 18 18 18 18
33 34 34 34 35 35 34 33 34 33 33 32 31 30 28 27 26 25 23 22 22 21 21 21 20 20 20 19 19 19 19 19 18 18 18 18 18 18 18 18 18 18 18 18 18 18 18 18 18
33 33 34 34 35 34 34 34 34 34 33 32 31 30 28 27 26 25 23 22 21 21 21 21 20 20 20 19 19 19 19 19 18 18 18 18 18 18 18 18 18 18 18 18 18 18 18 18 18
33 33 33 34 35 34 34 34 34 34 33 32 31 30 28 27 26 24 23 22 21 21 21 20 20 20 20 19 19 19 19 19 19 18 18 18 18 18 18 18 18 18 18 18 18 18 17 18 18
33 33 33 34 34 34 34 33 33 33 33 32 31 30 29 27 26 24 23 22 21 21 20 20 20 20 20 19 19 19 19 19 19 19 18 18 18 18 18 18 18 18 18 18 18 18 18 18 18
32 34 34 33 33 33 33 32 32 32 32 32 32 30 29 28 26 24 23 22 21 21 20 20 20 20 19 19 19 19 19 19 19 19 18 18 18 18 18 18 18 18 18 17 18 18 17 17 18
33 34 33 33 32 32 33 32 32 32 31 32 32 31 29 28 26 24 23 22 22 21 20 20 20 20 19 19 19 19 18 18 18 18 18 18 18 18 18 18 18 18 18 17 17 17 17 17 17
34 33 32 32 32 30 32 32 31 32 32 32 31 30 29 28 26 24 23 22 22 21 20 20 20 19 19 19 19 19 18 18 18 18 18 18 18 18 18 18 18 18 18 17 17 17 17 17 17
33 31 30 30 30 30 32 32 32 32 33 33 31 30 28 27 26 24 23 22 22 21 20 20 20 19 19 19 19 19 18 18 18 18 18 18 18 18 18 18 18 18 17 17 17 17 17 17 17
32 31 30 29 30 29 30 31 32 33 33 32 31 29 28 27 26 24 24 23 22 21 21 20 20 19 19 19 19 19 19 18 18 18 18 18 18 18 18 18 18 17 17 17 17 17 17 17 17
32 32 33 31 31 31 30 31 32 32 32 32 31 29 28 27 26 25 24 23 22 21 21 20 19 19 19 19 18 18 18 18 18 18 18 18 18 18 18 18 17 17 17 17 17 17 17 17 17
33 33 32 31 29 29 30 30 30 30 31 31 31 29 28 27 26 25 24 23 22 21 20 20 19 19 19 19 18 18 18 18 18 18 18 18 18 18 18 17 17 17 17 17 17 17 17 17 16
32 31 31 31 31 30 29 28 31 30 30 31 31 29 28 27 26 25 24 23 22 21 20 20 19 19 19 19 18 18 18 18 18 18 18 18 18 18 18 17 17 17 17 17 17 17 16 16 16
32 32 31 30 30 30 30 30 32 32 32 31 30 29 28 27 26 25 24 23 22 21 20 20 19 19 19 18 18 18 18 18 18 18 18 18 18 17 17 17 17 17 17 17 17 17 16 16 16
Wind_Speed
11 13 10 6 2 6 17 19 18 17 17 15 15 15 19 17 13 13 15 22 22 20 19 17 16 16 15 15 15 14 14 14 14 13 13 13 14 14 14 14 15 15 15 15 16 16 16 15 15
11 13 7 3 2 11 15 16 16 15 14 14 17 19 20 19 18 17 18 20 22 20 18 18 17 16 15 15 14 14 14 14 13 13 13 13 13 13 14 14 15 15 15 15 15 15 15 15 14
12 14 5 2 9 13 15 15 15 13 13 15 18 18 15 14 16 15 18 21 21 19 20 19 17 16 15 15 14 13 13 13 12 12 12 12 13 13 14 14 14 15 15 15 15 15 14 14 12
9 6 3 4 14 15 14 13 13 12 14 15 15 13 14 13 16 18 19 21 21 19 20 19 17 16 15 15 13 13 13 12 12 12 12 12 12 13 13 14 14 14 15 15 15 14 14 13 10
8 4 1 8 13 13 13 13 14 14 15 17 18 17 15 16 19 18 18 20 20 20 20 19 17 16 15 14 13 13 13 12 11 11 12 12 12 13 13 14 14 14 15 15 14 13 13 11 9
4 2 0 8 12 12 12 11 12 13 12 14 17 17 13 15 16 16 17 17 19 20 19 19 17 16 15 14 13 12 12 12 11 11 12 12 13 13 13 14 13 14 14 14 13 13 11 9 7
6 3 2 8 11 11 10 10 10 11 11 11 14 15 12 15 15 15 15 16 18 20 18 17 17 15 14 13 13 12 12 11 11 11 12 12 13 13 13 13 13 13 13 13 13 12 10 8 5
4 4 3 6 10 10 9 9 9 10 10 8 10 11 13 16 16 15 14 14 16 17 17 15 17 16 15 13 13 12 11 11 11 11 12 12 13 13 13 13 12 13 13 13 12 11 9 7 4
3 3 3 6 8 9 8 7 8 9 9 10 11 14 19 20 18 16 14 13 13 14 13 14 14 14 15 15 14 13 12 11 11 11 11 12 11 12 11 13 12 12 12 11 10 10 8 7 4
2 1 3 5 7 7 6 5 6 7 8 9 12 17 21 20 18 17 16 15 14 13 12 11 12 12 12 13 13 11 11 11 10 10 11 9 8 10 12 14 12 11 11 10 9 9 8 6 5
3 1 2 4 6 5 3 3 5 8 5 7 13 18 19 19 17 16 15 15 14 13 12 11 11 9 10 10 11 9 8 9 8 9 9 9 9 11 12 11 10 10 10 9 9 8 7 6 4
4 3 3 4 4 2 3 2 3 6 6 9 15 18 18 18 17 16 15 15 14 12 11 11 10 7 7 9 8 8 7 7 7 8 8 8 5 6 9 8 9 9 7 6 7 5 4 3 3
5 4 3 3 2 2 3 2 2 5 6 11 15 17 17 17 16 14 14 13 14 12 11 10 10 8 6 5 4 7 6 7 9 9 7 7 5 4 7 5 7 7 8 7 4 3 3 2 2
7 7 6 4 2 1 2 3 1 4 6 11 13 14 16 16 16 14 13 13 13 12 11 10 10 8 6 5 2 3 6 7 9 9 9 7 5 5 5 5 4 4 6 6 5 4 3 2 1
8 10 9 6 4 1 0 3 2 5 7 9 11 13 14 14 15 15 14 13 13 12 11 10 10 10 7 7 6 5 6 8 7 8 9 7 6 7 5 3 3 4 6 6 4 4 4 3 3
11 11 9 5 3 2 2 2 2 5 7 8 9 11 12 12 13 14 14 13 13 12 11 10 11 11 9 6 5 4 5 6 6 8 9 8 7 7 5 3 3 5 5 5 2 2 3 2 2
12 10 6 4 3 2 3 3 5 5 6 8 8 10 12 12 12 13 14 13 13 12 11 10 8 10 10 8 5 4 4 4 6 8 8 8 8 7 5 3 3 5 3 3 3 3 2 1 1
7 6 3 3 2 2 4 3 6 6 5 8 8 10 11 12 12 14 14 14 12 12 11 10 9 9 9 7 5 3 3 3 4 6 8 9 8 9 7 4 5 5 3 2 1 1 2 1 2
10 9 6 3 1 4 6 3 4 5 5 7 8 10 11 11 12 13 14 13 13 12 11 11 10 9 8 7 6 5 5 4 3 4 8 9 9 9 6 3 4 3 3 4 3 2 3 3 2
9 10 9 5 1 4 8 7 4 5 5 6 8 9 11 11 12 13 13 13 13 13 12 11 10 10 9 7 5 4 4 4 4 3 6 9 9 8 7 4 3 4 3 4 3 3 2 3 3
10 10 9 8 6 8 10 10 7 5 5 7 8 10 11 12 14 14 14 13 13 13 13 12 10 10 10 8 6 5 4 3 3 4 5 6 8 9 7 7 5 3 4 4 4 4 4 3 3
11 10 9 9 9 10 9 7 4 7 6 8 8 9 11 11 13 14 13 13 13 12 12 10 10 9 9 9 8 8 6 6 6 5 5 6 7 8 8 7 6 4 4 4 6 6 4 4 3
11 7 7 10 10 12 12 8 4 8 8 7 7 8 9 10 12 13 12 12 11 12 11 11 10 9 9 9 8 7 6 5 4 4 6 6 6 7 7 7 5 4 4 5 5 4 4 4 4
9 8 10 11 11 13 12 9 3 3 5 7 8 8 9 9 11 11 11 11 10 10 10 11 10 10 9 9 8 7 7 6 5 5 5 6 5 5 6 6 5 5 4 5 4 4 5 4 4
10 9 8 8 9 8 8 7 3 7 6 6 8 8 9 9 11 11 10 11 10 11 11 11 11 10 9 9 8 7 7 6 6 5 5 5 4 4 5 5 5 5 5 5 4 5 5 5 5
13 14 10 8 5 2 4 4 4 9 8 6 8 10 10 10 10 10 10 9 9 10 10 11 11 9 9 8 7 6 6 5 4 5 4 4 4 4 5 5 5 5 5 5 4 4 5 4 5
14 14 16 15 16 10 5 4 5 8 8 7 10 11 10 10 11 11 10 9 9 9 9 10 10 9 8 8 6 4 5 4 4 3 4 3 2 3 4 4 5 5 5 5 4 4 5 4 5
17 13 9 11 9 11 7 4 2 6 6 8 9 11 11 11 10 11 10 10 9 9 8 8 9 8 7 6 5 5 5 4 3 3 3 3 2 2 2 3 4 4 4 4 5 4 4 4 4
15 15 11 9 9 10 7 1 3 8 6 8 9 10 11 11 11 10 9 10 10 10 10 9 8 7 7 6 5 4 4 4 4 3 3 3 2 2 3 2 2 3 3 3 4 4 4 5 4
15 16 14 10 9 9 9 2 7 7 7 7 8 9 10 10 10 11 10 10 10 10 10 9 8 8 7 6 5 4 3 3 3 3 2 2 2 1 2 2 2 2 2 2 3 4 3 3 3
Wind_Direction
269 258 242 264 274 66 66 65 65 65 64 59 57 66 62 58 76 96 113 113 115 117 120 117 113 112 111 112 112 110 109 106 103 101 98 98 98 97 98 98 98 99 100 101 100 100 99 99 100
282 276 259 254 70 75 72 71 68 68 72 70 66 72 74 73 87 105 113 117 120 123 125 118 116 114 113 113 113 113 111 109 107 104 102 101 100 101 101 100 99 100 102 103 103 103 103 102 102
269 265 266 207 76 75 75 76 78 75 77 79 73 67 72 88 100 112 121 124 121 119 116 120 120 116 115 115 115 114 113 111 110 108 107 106 104 103 104 104 102 102 104 105 105 105 105 104 105
276 275 258 77 81 77 76 81 86 81 76 77 84 80 77 87 109 121 131 127 120 121 121 123 123 120 119 118 117 115 114 113 111 110 110 109 108 107 105 105 105 104 104 105 105 105 105 105 106
270 285 305 86 82 83 80 79 82 78 78 79 86 92 90 96 113 128 133 126 127 124 123 127 126 124 123 120 119 117 116 115 114 112 111 111 111 109 108 108 107 106 105 105 105 106 106 107 107
295 290 359 93 90 84 86 84 82 81 89 99 104 103 103 116 126 136 130 128 127 124 125 129 129 128 126 124 121 120 119 118 119 117 115 114 112 110 110 111 109 109 108 108 107 108 108 106 104
280 291 39 90 97 90 84 86 83 86 84 89 105 108 125 133 137 136 128 126 126 126 130 137 137 134 131 129 127 124 123 123 123 122 122 120 119 117 115 114 113 113 113 112 111 111 111 110 107
298 328 37 85 90 88 80 83 83 88 86 90 107 124 141 141 145 136 130 125 124 130 136 143 145 143 144 138 135 131 131 131 131 131 131 130 128 126 125 121 118 118 118 118 118 117 118 120 119
317 338 10 61 79 89 90 87 89 91 89 76 68 113 139 146 147 142 139 130 131 133 139 147 143 150 150 144 141 142 141 142 144 144 145 147 148 141 138 122 126 125 126 128 128 128 133 139 152
322 343 36 46 60 75 90 94 101 95 90 96 97 113 136 149 153 155 154 149 147 142 141 144 143 151 150 141 143 153 153 155 167 152 158 167 151 138 126 130 134 135 136 139 143 147 155 174 174
307 342 20 55 58 41 55 87 104 105 103 138 135 138 148 156 162 163 160 157 153 148 148 149 144 148 143 134 149 155 148 154 162 155 161 160 145 135 133 141 144 151 157 159 155 174 187 193 177
293 334 356 5 46 14 20 19 74 93 108 138 141 149 157 165 170 166 161 156 151 151 151 149 137 134 133 138 145 153 151 154 157 160 167 152 156 151 146 151 159 165 170 162 173 187 180 143 144
273 298 303 301 294 6 349 343 67 97 121 128 134 148 160 169 170 165 155 150 149 151 152 144 131 129 126 125 154 156 150 158 157 158 162 158 155 144 141 145 158 169 160 164 173 153 131 117 124
309 303 287 278 281 253 315 286 185 128 132 130 138 150 161 166 164 158 153 153 152 154 153 143 138 136 138 149 163 140 150 154 160 161 160 165 150 135 137 147 157 158 154 161 161 157 154 172 143
281 275 266 243 234 188 334 287 206 144 139 140 149 155 156 160 162 159 159 158 156 155 151 146 149 150 162 173 180 167 167 166 159 149 151 159 155 144 150 145 167 159 154 151 161 162 166 185 175
258 256 253 226 199 173 186 221 165 140 147 147 153 155 153 155 162 159 158 157 155 156 153 160 168 161 171 181 193 174 175 159 148 149 152 160 159 162 158 158 168 158 160 156 168 202 193 191 184
246 243 240 193 180 225 233 191 151 164 158 148 154 154 153 155 160 155 157 160 159 158 158 165 165 164 171 178 184 196 166 153 154 156 158 167 171 168 175 168 156 170 159 172 194 183 197 181 202
286 273 245 225 151 285 275 190 161 168 169 157 160 158 159 162 164 158 159 160 159 159 160 165 169 171 169 173 178 203 174 161 161 160 160 170 180 178 188 180 172 188 167 175 208 162 184 197 217
299 304 299 299 29 303 292 261 188 169 175 161 162 160 164 165 162 156 158 162 163 162 166 171 177 171 171 177 182 190 183 179 184 171 167 179 190 184 193 191 168 195 182 185 192 196 201 213 215
276 279 280 279 222 284 286 279 220 186 190 171 170 167 167 167 160 156 160 167 170 171 173 176 180 175 179 181 179 183 181 186 192 182 176 186 188 183 187 189 195 192 190 193 204 203 216 226 210
262 267 281 296 299 270 268 259 213 192 188 172 176 170 169 171 165 162 168 173 177 178 180 183 182 177 183 177 180 185 177 191 187 183 186 192 186 192 198 185 201 196 197 192 203 205 214 236 242
256 262 276 287 284 285 274 278 177 166 187 186 180 169 164 164 163 165 172 176 181 181 181 178 176 177 182 181 186 187 189 193 195 189 187 190 192 198 199 193 198 202 219 197 203 203 213 220 240
260 297 295 281 275 277 274 273 206 176 179 180 163 152 150 155 160 165 172 175 177 178 178 175 173 180 184 188 187 192 199 201 196 194 184 188 189 197 203 197 195 202 219 218 222 199 210 222 232
259 269 269 264 265 259 256 258 231 147 151 158 147 143 141 151 149 152 164 164 170 175 174 171 172 178 181 187 187 193 199 197 202 202 188 193 189 192 201 200 201 209 221 223 221 218 217 232 246
231 245 252 243 240 257 263 245 173 122 121 131 138 137 136 142 144 151 159 164 170 172 172 170 170 176 180 187 190 194 200 199 208 214 204 199 194 196 201 202 198 208 215 215 210 216 227 224 236
217 233 247 267 269 283 257 245 144 120 115 122 133 134 139 146 148 150 157 161 166 169 169 167 167 172 177 183 191 196 198 203 212 215 215 210 206 199 196 199 202 203 209 220 209 214 222 223 230
234 229 249 266 278 273 227 210 147 128 139 143 137 140 148 147 143 145 151 154 160 164 163 161 162 165 171 176 176 189 195 204 216 213 215 223 224 214 201 203 208 209 212 222 215 221 225 217 223
245 248 247 256 278 284 267 241 175 150 156 144 146 150 147 144 145 144 144 149 150 152 150 149 152 156 160 163 171 179 181 187 198 206 211 213 216 216 205 201 208 210 216 220 216 222 226 221 227
223 242 258 271 266 271 280 7 111 157 182 165 155 148 145 154 150 145 143 140 139 141 143 142 146 151 155 158 166 175 176 183 185 191 202 208 211 206 209 207 205 207 213 217 216 225 221 219 226
236 228 233 244 262 272 277 241 160 162 173 154 141 137 145 146 145 143 144 141 142 145 144 146 154 158 160 161 166 170 167 170 176 183 189 192 189 195 190 195 199 213 218 220 217 228 222 215 223
Height
1489 1488 1488 1491 1489 1488 1491 1487 1484 1487 1488 1490 1490 1492 1498 1501 1508 1521 1525 1525 1528 1530 1532 1535 1536 1538 1540 1542 1543 1544 1546 1547 1548 1549 1550 1551 1552 1553 1553 1554 1555 1556 1557 1558 1559 1560 1561 1562 1563
1489 1490 1493 1491 1492 1501 1499 1488 1489 1490 1491 1493 1494 1498 1503 1508 1513 1520 1525 1528 1530 1532 1534 1536 1538 1540 1542 1543 1545 1547 1548 1549 1550 1551 1552 1553 1554 1555 1556 1557 1558 1559 1559 1560 1561 1562 1563 1564 1565
1490 1491 1492 1487 1491 1498 1498 1489 1490 1491 1492 1495 1499 1503 1508 1514 1518 1522 1527 1530 1532 1534 1535 1538 1540 1542 1543 1545 1547 1548 1550 1551 1552 1553 1554 1555 1556 1557 1558 1559 1560 1561 1561 1562 1563 1564 1565 1567 1568
1494 1492 1489 1487 1492 1488 1488 1488 1489 1491 1493 1496 1500 1508 1514 1518 1521 1525 1528 1531 1533 1535 1537 1539 1541 1543 1545 1547 1548 1550 1552 1553 1554 1555 1556 1557 1558 1559 1560 1561 1562 1563 1563 1565 1566 1567 1568 1569 1570
1496 1493 1490 1492 1490 1486 1486 1488 1490 1492 1496 1500 1505 1512 1518 1522 1524 1527 1530 1533 1535 1537 1538 1540 1542 1544 1546 1548 1550 1552 1553 1555 1556 1557 1558 1559 1560 1561 1562 1563 1564 1565 1566 1567 1568 1569 1570 1571 1572
1495 1490 1496 1497 1492 1487 1487 1489 1491 1494 1497 1500 1506 1513 1521 1525 1526 1529 1532 1534 1536 1537 1539 1542 1544 1546 1548 1550 1551 1553 1555 1556 1557 1559 1560 1561 1562 1563 1564 1565 1566 1567 1568 1569 1570 1571 1572 1573 1575
1495 1492 1494 1491 1491 1491 1488 1490 1492 1495 1497 1501 1505 1513 1521 1525 1528 1530 1533 1536 1538 1539 1540 1543 1545 1547 1549 1551 1553 1555 1556 1558 1559 1560 1562 1563 1564 1565 1566 1567 1568 1569 1570 1571 1572 1573 1574 1576 1577
1491 1491 1492 1489 1490 1491 1489 1490 1493 1496 1499 1502 1505 1511 1519 1525 1528 1531 1534 1537 1539 1540 1542 1544 1546 1548 1550 1552 1554 1556 1558 1559 1561 1562 1564 1565 1566 1567 1568 1569 1570 1571 1572 1573 1574 1575 1577 1578 1579
1490 1495 1497 1489 1488 1489 1489 1491 1494 1497 1500 1503 1506 1509 1516 1522 1527 1531 1534 1537 1540 1542 1544 1546 1548 1550 1552 1554 1555 1557 1559 1561 1562 1564 1565 1566 1567 1569 1570 1571 1572 1574 1575 1576 1577 1578 1579 1580 1582
1489 1497 1493 1484 1483 1485 1488 1491 1493 1497 1502 1506 1510 1514 1517 1522 1526 1529 1533 1536 1540 1543 1545 1547 1549 1551 1554 1555 1556 1558 1560 1562 1564 1565 1567 1568 1569 1571 1572 1573 1574 1575 1577 1578 1579 1580 1581 1583 1584
1487 1489 1485 1483 1485 1487 1488 1489 1492 1496 1502 1506 1510 1514 1518 1521 1525 1528 1532 1535 1539 1542 1545 1548 1550 1552 1554 1555 1557 1559 1562 1563 1565 1567 1568 1569 1570 1571 1573 1574 1576 1577 1578 1579 1581 1582 1583 1584 1586
1488 1486 1486 1485 1487 1489 1489 1490 1491 1494 1499 1503 1507 1511 1516 1520 1523 1527 1531 1535 1538 1541 1544 1547 1550 1552 1554 1556 1558 1560 1562 1563 1565 1567 1569 1570 1571 1573 1574 1575 1577 1578 1579 1581 1582 1583 1585 1586 1587
1487 1487 1487 1487 1487 1489 1490 1491 1493 1496 1499 1502 1506 1510 1514 1517 1522 1526 1530 1534 1537 1540 1544 1547 1549 1551 1553 1555 1558 1561 1562 1564 1565 1567 1569 1570 1571 1573 1575 1576 1578 1579 1581 1581 1583 1584 1585 1587 1588
1489 1487 1486 1486 1486 1488 1490 1491 1493 1496 1498 1502 1506 1509 1512 1516 1520 1525 1529 1533 1536 1539 1542 1545 1547 1549 1552 1555 1557 1560 1562 1563 1565 1567 1568 1570 1572 1573 1575 1576 1578 1579 1581 1582 1583 1584 1586 1587 1588
1491 1489 1485 1483 1484 1486 1489 1493 1492 1494 1498 1501 1505 1509 1512 1516 1520 1524 1528 1531 1535 1538 1541 1543 1545 1548 1551 1554 1557 1559 1561 1563 1565 1566 1568 1570 1571 1573 1575 1576 1578 1579 1581 1582 1583 1584 1586 1587 1588
1488 1489 1491 1482 1482 1484 1491 1502 1491 1493 1497 1500 1504 1508 1513 1517 1520 1524 1527 1530 1534 1537 1539 1542 1545 1547 1549 1553 1556 1559 1561 1562 1564 1565 1567 1569 1570 1572 1574 1576 1577 1579 1580 1581 1583 1584 1586 1587 1588
1488 1493 1490 1484 1480 1482 1486 1494 1490 1492 1495 1499 1503 1508 1512 1516 1520 1523 1526 1529 1532 1534 1537 1541 1544 1546 1548 1551 1554 1556 1559 1561 1563 1564 1566 1567 1569 1571 1573 1575 1577 1578 1579 1581 1582 1584 1585 1586 1587
1494 1488 1487 1485 1479 1481 1485 1487 1486 1490 1492 1497 1502 1506 1511 1515 1519 1522 1525 1528 1531 1533 1536 1539 1542 1544 1547 1549 1552 1554 1557 1559 1562 1563 1564 1566 1568 1569 1571 1573 1575 1577 1578 1580 1581 1582 1584 1585 1586
1487 1488 1488 1482 1478 1484 1485 1485 1484 1486 1490 1495 1500 1504 1509 1513 1518 1521 1524 1527 1530 1532 1535 1537 1540 1542 1544 1547 1549 1552 1555 1557 1560 1561 1563 1565 1566 1568 1569 1572 1573 1575 1577 1578 1580 1581 1582 1583 1584
1490 1492 1489 1482 1478 1485 1486 1485 1482 1485 1488 1493 1497 1502 1507 1512 1516 1519 1523 1526 1528 1530 1533 1535 1538 1540 1542 1545 1548 1550 1553 1555 1558 1560 1561 1563 1564 1566 1568 1569 1571 1573 1575 1576 1578 1579 1580 1581 1583
1492 1492 1489 1487 1482 1481 1486 1489 1484 1483 1486 1491 1495 1499 1504 1508 1513 1517 1521 1524 1526 1528 1531 1533 1535 1538 1540 1543 1546 1549 1551 1553 1555 1557 1559 1561 1562 1564 1565 1567 1569 1571 1573 1574 1575 1577 1578 1580 1581
1495 1484 1484 1487 1493 1493 1487 1501 1487 1483 1487 1489 1492 1496 1501 1506 1511 1515 1519 1522 1525 1527 1529 1532 1534 1536 1538 1541 1544 1546 1548 1550 1552 1554 1556 1558 1560 1561 1563 1565 1567 1569 1570 1572 1573 1574 1576 1577 1578
1488 1482 1485 1488 1493 1497 1489 1497 1491 1482 1488 1488 1490 1494 1499 1504 1509 1513 1517 1520 1523 1525 1528 1530 1532 1534 1536 1539 1542 1544 1547 1549 1551 1553 1554 1555 1557 1558 1560 1562 1564 1566 1567 1569 1570 1572 1573 1575 1576
1484 1487 1490 1490 1493 1508 1494 1497 1496 1484 1485 1485 1490 1494 1499 1503 1508 1512 1516 1519 1521 1524 1526 1528 1530 1532 1534 1537 1540 1542 1545 1547 1549 1550 1552 1553 1554 1556 1558 1559 1561 1563 1564 1566 1567 1568 1570 1571 1572
1487 1500 1512 1514 1514 1509 1486 1491 1490 1479 1479 1483 1488 1494 1499 1503 1507 1511 1514 1517 1519 1522 1524 1526 1528 1530 1533 1535 1538 1540 1542 1544 1546 1548 1550 1551 1552 1553 1555 1556 1557 1559 1561 1562 1564 1565 1567 1568 1569
1487 1494 1513 1520 1515 1511 1497 1496 1484 1474 1479 1483 1488 1493 1498 1503 1507 1510 1513 1515 1518 1520 1523 1525 1527 1529 1531 1534 1536 1538 1540 1542 1544 1546 1548 1549 1550 1551 1552 1554 1555 1556 1557 1559 1560 1561 1563 1564 1565
1486 1488 1484 1494 1495 1502 1498 1489 1481 1476 1479 1483 1487 1493 1498 1502 1506 1509 1512 1515 1517 1519 1521 1524 1526 1528 1530 1532 1534 1537 1538 1540 1542 1544 1545 1547 1548 1549 1550 1551 1552 1553 1554 1555 1556 1558 1559 1560 1561
1478 1478 1485 1495 1509 1514 1500 1496 1493 1488 1483 1484 1487 1492 1497 1502 1506 1509 1512 1514 1517 1519 1521 1523 1525 1526 1529 1531 1533 1535 1537 1538 1540 1542 1543 1544 1545 1546 1547 1548 1549 1550 1551 1552 1553 1554 1555 1556 1556
1482 1485 1486 1487 1489 1506 1513 1510 1482 1485 1484 1483 1486 1491 1496 1500 1504 1508 1512 1514 1517 1519 1521 1522 1524 1526 1528 1530 1532 1534 1536 1537 1538 1540 1541 1542 1543 1544 1544 1545 1546 1547 1548 1549 1549 1550 1551 1552 1553
1472 1478 1484 1499 1499 1493 1501 1501 1476 1478 1479 1481 1485 1490 1495 1501 1504 1509 1512 1515 1517 1519 1521 1523 1524 1526 1528 1530 1531 1533 1534 1535 1536 1538 1539 1540 1541 1541 1542 1543 1543 1544 1545 1546 1546 1546 1547 1548 1548